GW0587 Weather Reports


Display with metric or nautical units.
time (UTC)temp
F
wind
direction
speed
MPH
gust
MPH
rain 1hr
in
rain 24hr
in
rain mn
in
humidity
%
barometer
mb
20260507221543 67 236 1.0 4.0 0.00 0.00 0.00 50 1016.2
20260507220040 66 0 0.0 8.0 0.00 0.00 0.00 49 1016.2
20260507214550 66 0 0.0 7.0 0.00 0.00 0.00 48 1016.2
20260507213046 67 352 2.0 6.0 0.00 0.00 0.00 48 1016.2
20260507211601 68 98 1.0 4.0 0.00 0.00 0.00 48 1016.4
20260507210045 68 257 2.0 7.0 0.00 0.00 0.00 49 1016.3
20260507204543 68 230 2.0 7.0 0.00 0.04 0.00 46 1016.3
20260507203047 68 266 2.0 10.0 0.00 0.04 0.00 45 1016.5
20260507201559 69 285 0.0 7.0 0.00 0.04 0.00 47 1016.6
20260507200059 70 259 1.0 5.0 0.00 0.04 0.00 48 1016.7
20260507194545 69 109 0.0 7.0 0.00 0.05 0.00 47 1016.8
20260507193044 68 246 1.0 7.0 0.00 0.05 0.00 47 1016.9
20260507191549 68 271 2.0 9.0 0.00 0.05 0.00 44 1017.1
20260507190041 68 298 1.0 9.0 0.00 0.05 0.00 45 1017.0
20260507184540 68 360 1.0 8.0 0.00 0.05 0.00 48 1017.1
20260507183045 67 317 2.0 6.0 0.00 0.05 0.00 47 1017.2
20260507181546 67 260 2.0 5.0 0.00 0.05 0.00 45 1017.4
20260507180049 68 0 2.0 7.0 0.00 0.05 0.00 45 1017.5
20260507174542 67 0 1.0 5.0 0.00 0.06 0.00 50 1017.7
20260507173047 66 267 2.0 9.0 0.00 0.06 0.00 52 1017.9
20260507171547 65 301 2.0 6.0 0.00 0.06 0.00 52 1018.0
20260507170047 65 325 1.0 7.0 0.00 0.06 0.00 53 1018.2
20260507164548 64 46 3.0 9.0 0.00 0.11 0.00 52 1018.4
20260507163042 65 86 2.0 8.0 0.00 0.11 0.00 50 1018.4
20260507161548 65 0 1.0 5.0 0.00 0.11 0.00 54 1018.4
20260507160041 64 0 1.0 8.0 0.00 0.11 0.00 53 1018.4
20260507154548 63 88 2.0 10.0 0.00 0.20 0.00 57 1018.4
20260507153046 63 42 2.0 10.0 0.00 0.20 0.00 58 1018.3
20260507151546 62 22 2.0 8.0 0.00 0.20 0.00 59 1018.4
20260507150041 62 355 2.0 8.0 0.00 0.20 0.00 60 1018.7
20260507144541 62 37 0.0 8.0 0.00 0.29 0.00 67 1018.8
20260507143041 61 337 1.0 9.0 0.00 0.29 0.00 70 1018.6
20260507141538 60 0 0.0 4.0 0.00 0.29 0.00 71 1018.5
20260507140100 59 0 0.0 4.0 0.00 0.29 0.00 74 1018.6
20260507134544 58 310 1.0 6.0 0.00 0.32 0.00 77 1018.5
20260507133043 57 0 0.0 3.0 0.00 0.32 0.00 82 1018.4
20260507131544 56 342 1.0 4.0 0.00 0.32 0.00 82 1018.2
20260507130050 55 0 0.0 3.0 0.00 0.32 0.00 87 1018.3
20260507124540 53 24 0.0 3.0 0.00 0.32 0.00 89 1018.1
20260507123046 52 288 0.0 4.0 0.00 0.32 0.00 92 1017.9
20260507121545 50 0 0.0 2.0 0.00 0.32 0.00 94 1017.8
20260507120042 49 5 0.0 3.0 0.00 0.32 0.00 94 1017.3
20260507114556 49 0 0.0 0.0 0.00 0.32 0.00 93 1017.3
20260507113048 49 0 0.0 0.0 0.00 0.32 0.00 93 1017.1
20260507111544 49 0 0.0 0.0 0.00 0.32 0.00 93 1017.1
20260507110051 49 349 0.0 0.0 0.00 0.32 0.00 93 1017.1
20260507104544 49 0 0.0 1.0 0.00 0.48 0.00 92 1016.6
20260507103042 49 0 0.0 1.0 0.00 0.48 0.00 92 1017.0
20260507101558 49 0 0.0 0.0 0.00 0.48 0.00 92 1016.8
20260507100048 50 0 0.0 1.0 0.00 0.48 0.00 92 1016.8
20260507094551 50 0 0.0 3.0 0.00 0.60 0.00 92 1017.0
20260507093046 50 0 0.0 1.0 0.00 0.60 0.00 92 1016.6
20260507091555 50 0 0.0 1.0 0.00 0.60 0.00 92 1016.6
20260507084542 51 0 0.0 1.0 0.00 0.89 0.00 92 1016.4
20260507083042 51 0 0.0 1.0 0.00 0.89 0.00 92 1016.2
20260507081554 51 0 0.0 2.0 0.00 0.89 0.00 92 1016.0
20260507080044 51 0 0.0 0.0 0.00 0.89 0.00 92 1016.4
20260507074544 51 0 0.0 0.0 0.00 0.97 0.00 92 1016.5
20260507073056 51 0 0.0 0.0 0.00 0.97 0.00 92 1016.5
20260507071545 52 0 0.0 1.0 0.00 0.97 0.00 92 1016.4
20260507070110 52 0 0.0 1.0 0.00 0.97 0.00 92 1016.4
20260507064548 52 0 0.0 0.0 0.00 1.05 0.00 92 1016.6
20260507063040 52 0 0.0 2.0 0.00 1.05 0.00 92 1016.5
20260507061547 52 0 0.0 0.0 0.00 1.05 0.00 91 1016.7
20260507060047 52 0 0.0 1.0 0.00 1.05 0.00 91 1016.5
20260507054550 52 0 0.0 3.0 0.00 1.05 0.00 92 1016.5
20260507053046 52 0 0.0 1.0 0.00 1.05 0.00 92 1016.4
20260507051542 52 0 0.0 3.0 0.00 1.05 0.00 92 1016.3
20260507050041 52 343 0.0 3.0 0.00 1.05 0.00 92 1015.9
20260507044546 52 344 0.0 3.0 0.00 1.05 1.05 92 1015.9
20260507043043 52 0 0.0 1.0 0.00 1.05 1.05 92 1016.2
20260507041542 52 0 0.0 1.0 0.00 1.05 1.05 92 1016.3
20260507040041 52 0 0.0 2.0 0.00 1.05 1.05 92 1016.2
20260507034545 52 0 0.0 0.0 0.00 1.05 1.05 92 1016.3
20260507033041 52 0 0.0 1.0 0.00 1.05 1.05 91 1016.9
20260507031546 52 0 0.0 2.0 0.00 1.05 1.05 91 1016.6
20260507030043 52 0 0.0 3.0 0.00 1.05 1.05 91 1016.7
20260507024543 52 0 0.0 3.0 0.00 1.05 1.05 91 1016.3
20260507023041 52 0 0.0 3.0 0.00 1.05 1.05 91 1015.7
20260507021602 52 352 1.0 4.0 0.00 1.05 1.05 91 1015.6
20260507020048 52 348 0.0 3.0 0.00 1.05 1.05 91 1015.7
20260507014553 52 0 0.0 3.0 0.00 1.05 1.05 91 1015.4
20260507013053 52 335 0.0 4.0 0.00 1.05 1.05 91 1015.6
20260507011548 52 0 1.0 4.0 0.00 1.05 1.05 91 1015.0
20260507010100 52 76 1.0 5.0 0.00 1.05 1.05 91 1015.0
20260507004547 53 28 0.0 3.0 0.00 1.05 1.05 91 1015.1
20260507003044 53 0 0.0 4.0 0.00 1.05 1.05 91 1015.4
20260507001541 53 0 0.0 3.0 0.00 1.05 1.05 91 1015.7
20260507000043 53 342 0.0 4.0 0.00 1.05 1.05 91 1015.6
20260506234548 53 0 1.0 3.0 0.00 1.05 1.05 91 1015.1
20260506233049 53 5 1.0 3.0 0.00 1.05 1.05 91 1015.5
20260506231546 53 0 0.0 5.0 0.00 1.05 1.05 91 1015.1
20260506230044 53 0 0.0 5.0 0.00 1.05 1.05 91 1015.3
20260506224542 53 0 0.0 4.0 0.00 1.05 1.05 91 1014.9
20260506223040 53 0 1.0 8.0 0.00 1.05 1.05 90 1014.4